Hourly Data Report for October 31, 2016

All times are specified in Local Standard Time (LST). Add 1 hour to adjust for Daylight Saving Time where and when it is observed.

ST LEONARD CS
NEW BRUNSWICK

47°09'28.050" N
67°49'55.014" W
245.00 m
810I001
71019
WIY

Download Data

Hourly Data (October 2016)
Hourly Data Report for October 31, 2016
Temp Definition
°C
Dew Point Temp Definition
°C
Rel Hum Definition
%
Wind Dir Definition
10's deg

Wind Spd Definition
km/h
Visibility Definition
km
Stn Press Definition
kPa
Hmdx Definition


Wind Chill Definition


Weather Definition


TIME
00:00 3.3 2.1 92 30 9   98.19     LegendNANA
01:00 3.1 1.4 89 33 11   98.19     LegendNANA
02:00 2.8 1.3 90 31 12   98.20     LegendNANA
03:00 2.7 1.0 89 31 14   98.23     LegendNANA
04:00 2.6 1.0 89 31 11   98.27     LegendNANA
05:00 2.5 1.0 90 30 12   98.34     LegendNANA
06:00 2.1 0.8 91 32 16   98.37     LegendNANA
07:00 1.7 0.2 90 31 21   98.43     LegendNANA
08:00 1.4 -0.3 89 31 18   98.53     LegendNANA
09:00 1.8 -0.5 85 31 22   98.60     LegendNANA
10:00 2.0 -0.6 83 31 21   98.67     LegendNANA
11:00 2.6 -0.2 82 32 23   98.74     LegendNANA
12:00 3.0 0.1 81 31 23   98.80     LegendNANA
13:00 3.8 -0.5 74 32 25   98.84     LegendNANA
14:00 3.7 -0.3 75 31 23   98.88     LegendNANA
15:00 4.1 -0.7 71 32 25   98.93     LegendNANA
16:00 2.5 -0.5 80 32 25   99.01     LegendNANA
17:00 1.9 -0.9 81 31 22   99.11     LegendNANA
18:00 1.2 -1.4 83 33 12   99.21     LegendNANA
19:00 0.9 -1.4 85 32 11   99.31     LegendNANA
20:00 0.8 -1.3 85 32 11   99.39     LegendNANA
21:00 0.8 -1.5 85 33 11   99.46     LegendNANA
22:00 0.6 -1.7 84 33 9   99.52     LegendNANA
23:00 0.3 -2.1 84 33 7   99.50     LegendNANA

Notes on Data Quality.

Legend

  • E = Estimated
  • M = Missing
  • NA = Not Available
  • ‡ = Partner data that is not subject to review by the National Climate Archives
Date modified: